DLH1124 EDDF-LCLK

Flight info

Callsign DLH1124
Flight time 3h 24m
Altitude 31000
Route CINDY5L CINDY Z74 HAREM DCT ASLEP DCT TAKUT DCT DINKU L603 BESNI/N0487F410 L605 MIQ DCT ALUTU DCT BIBAG L605 ESEGA DCT VELOM DCT GOTAR DCT BABIT DCT OKLOP DCT NISVA N131 RODIP UN131 KULAR UT39 TOMBI M855 DASNI M601 BONEK
Aircraft A359/H-SDE2E3GHIJ3J4J5LM1ORWXY/LB1D1

Departure

Time 2026-05-06 02:20
Airport Frankfurt Main Airport (EDDF)

Arrival

Time 2026-05-06 05:45
Airport Larnaca International Airport (LCLK)
Time Latitude Longitude Altitude Speed Heading
2026-05-06 01:50 50.03852 8.54690 368 ft 0 kts 160°
2026-05-06 02:08 50.03858 8.54687 370 ft 3 kts 160°
2026-05-06 02:08 50.03876 8.54677 369 ft 3 kts 160°
2026-05-06 02:09 50.03894 8.54667 369 ft 3 kts 181°
2026-05-06 02:09 50.03914 8.54674 369 ft 3 kts 223°
2026-05-06 02:09 50.03924 8.54692 371 ft 0 kts 250°
2026-05-06 02:14 50.03919 8.54645 368 ft 18 kts 262°
2026-05-06 02:14 50.03878 8.54445 371 ft 19 kts 255°
2026-05-06 02:14 50.03821 8.54276 373 ft 16 kts 239°
2026-05-06 02:14 50.03778 8.54129 372 ft 14 kts 249°
2026-05-06 02:15 50.03742 8.53979 372 ft 15 kts 249°
2026-05-06 02:15 50.03704 8.53822 370 ft 16 kts 249°
2026-05-06 02:15 50.03663 8.53650 373 ft 18 kts 249°
2026-05-06 02:15 50.03621 8.53478 371 ft 16 kts 249°
2026-05-06 02:16 50.03582 8.53316 375 ft 16 kts 249°
2026-05-06 02:16 50.03543 8.53160 374 ft 15 kts 249°
2026-05-06 02:16 50.03507 8.53012 378 ft 13 kts 249°
2026-05-06 02:16 50.03481 8.52903 378 ft 8 kts 248°
2026-05-06 02:17 50.03466 8.52849 381 ft 3 kts 248°
2026-05-06 02:17 50.03453 8.52801 383 ft 9 kts 246°
2026-05-06 02:17 50.03436 8.52740 385 ft 0 kts 247°
2026-05-06 02:18 50.03436 8.52739 385 ft 2 kts 247°
2026-05-06 02:18 50.03397 8.52615 385 ft 11 kts 226°
2026-05-06 02:19 50.03305 8.52596 381 ft 0 kts 180°
2026-05-06 02:19 50.03068 8.52598 373 ft 75 kts 179°
2026-05-06 02:19 50.02298 8.52604 376 ft 144 kts 179°
2026-05-06 02:20 50.00218 8.52691 938 ft 199 kts 177°
2026-05-06 02:20 49.98455 8.52816 1752 ft 216 kts 182°
2026-05-06 02:20 49.97075 8.52962 1966 ft 205 kts 174°
2026-05-06 02:21 49.95840 8.53686 2044 ft 178 kts 154°
2026-05-06 02:21 49.94981 8.54874 1883 ft 177 kts 134°
2026-05-06 02:21 49.94200 8.56670 1821 ft 211 kts 126°
2026-05-06 02:21 49.93486 8.58697 2130 ft 218 kts 122°
2026-05-06 02:22 49.92800 8.60874 2347 ft 232 kts 120°
2026-05-06 02:22 49.92093 8.63224 2629 ft 249 kts 119°
2026-05-06 02:22 49.91349 8.65709 2915 ft 265 kts 118°
2026-05-06 02:22 49.90547 8.68362 3211 ft 281 kts 118°
2026-05-06 02:23 49.89726 8.71040 3515 ft 296 kts 118°
2026-05-06 02:23 49.88818 8.73970 3854 ft 311 kts 118°
2026-05-06 02:23 49.87855 8.77057 4173 ft 325 kts 118°
2026-05-06 02:23 49.86870 8.80198 4473 ft 339 kts 118°
2026-05-06 02:24 49.86162 8.82449 4674 ft 349 kts 118°
2026-05-06 02:24 49.84725 8.87014 5054 ft 367 kts 118°
2026-05-06 02:24 49.83979 8.89384 5352 ft 372 kts 118°
2026-05-06 02:24 49.82445 8.94250 6089 ft 379 kts 118°
2026-05-06 02:25 49.81677 8.96686 6455 ft 382 kts 118°
2026-05-06 02:25 49.80499 9.00417 7047 ft 386 kts 118°
2026-05-06 02:25 49.79314 9.04163 7680 ft 389 kts 118°
2026-05-06 02:25 49.78118 9.07938 8320 ft 392 kts 118°
2026-05-06 02:26 49.76903 9.11761 8883 ft 398 kts 118°
2026-05-06 02:26 49.75673 9.15625 9493 ft 401 kts 118°
2026-05-06 02:26 49.74237 9.19307 10049 ft 401 kts 129°
2026-05-06 02:26 49.72538 9.22719 10632 ft 402 kts 132°
2026-05-06 02:27 49.70741 9.26009 11215 ft 403 kts 134°
2026-05-06 02:27 49.68904 9.29221 11777 ft 405 kts 134°
2026-05-06 02:27 49.67029 9.32449 12347 ft 407 kts 135°
2026-05-06 02:27 49.65134 9.35711 12888 ft 410 kts 134°
2026-05-06 02:28 49.63234 9.39013 13453 ft 413 kts 133°
2026-05-06 02:28 49.61702 9.42683 13926 ft 420 kts 118°
2026-05-06 02:28 49.60587 9.46649 14397 ft 424 kts 113°
2026-05-06 02:28 49.59588 9.50954 14824 ft 430 kts 111°
2026-05-06 02:29 49.58669 9.55361 15301 ft 433 kts 110°
2026-05-06 02:29 49.57774 9.59810 15842 ft 435 kts 109°
2026-05-06 02:29 49.56869 9.64274 16330 ft 438 kts 110°
2026-05-06 02:29 49.55940 9.68755 16816 ft 440 kts 110°
2026-05-06 02:30 49.54989 9.73250 17317 ft 442 kts 111°
2026-05-06 02:30 49.54018 9.77765 17784 ft 446 kts 111°
2026-05-06 02:30 49.52878 9.82168 18224 ft 445 kts 121°
2026-05-06 02:30 49.51239 9.86184 18672 ft 444 kts 128°
2026-05-06 02:31 49.49404 9.90022 19097 ft 446 kts 131°
2026-05-06 02:31 49.47463 9.93769 19511 ft 449 kts 132°
2026-05-06 02:31 49.45468 9.97484 19975 ft 451 kts 133°
2026-05-06 02:31 49.43452 10.01201 20444 ft 454 kts 133°
2026-05-06 02:32 49.41431 10.04938 20899 ft 458 kts 133°
2026-05-06 02:32 49.39459 10.08606 21351 ft 460 kts 133°
2026-05-06 02:32 49.37416 10.12427 21818 ft 464 kts 133°
2026-05-06 02:32 49.35368 10.16278 22273 ft 467 kts 132°
2026-05-06 02:33 49.33312 10.20142 22725 ft 470 kts 133°
2026-05-06 02:33 49.31933 10.22730 23022 ft 472 kts 133°
2026-05-06 02:34 49.24899 10.35888 24293 ft 483 kts 133°
2026-05-06 02:34 49.22633 10.39663 24695 ft 482 kts 137°
2026-05-06 02:34 49.20268 10.43327 25113 ft 484 kts 138°
2026-05-06 02:34 49.17872 10.46934 25501 ft 486 kts 139°
2026-05-06 02:35 49.15468 10.50499 25890 ft 488 kts 139°
2026-05-06 02:35 49.12991 10.54149 26257 ft 490 kts 139°
2026-05-06 02:35 49.10560 10.57736 26613 ft 492 kts 139°
2026-05-06 02:35 49.08109 10.61348 26959 ft 494 kts 139°
2026-05-06 02:36 49.05687 10.64917 27270 ft 496 kts 140°
2026-05-06 02:36 49.03202 10.68583 27509 ft 500 kts 140°
2026-05-06 02:36 49.00688 10.72284 27784 ft 503 kts 141°
2026-05-06 02:36 48.98161 10.75992 28080 ft 506 kts 141°
2026-05-06 02:37 48.95626 10.79705 28383 ft 507 kts 141°
2026-05-06 02:37 48.93073 10.83439 28654 ft 509 kts 141°
2026-05-06 02:37 48.90550 10.87132 28898 ft 511 kts 141°
2026-05-06 02:37 48.87990 10.90883 29098 ft 512 kts 141°
2026-05-06 02:38 48.85426 10.94632 29253 ft 513 kts 141°
2026-05-06 02:38 48.82840 10.98406 29400 ft 514 kts 141°
2026-05-06 02:38 48.80265 11.02160 29491 ft 515 kts 142°
2026-05-06 02:39 48.75100 11.09671 29630 ft 516 kts 143°
2026-05-06 02:39 48.69895 11.17194 29735 ft 517 kts 143°
2026-05-06 02:40 48.65124 11.25483 29756 ft 532 kts 129°
2026-05-06 02:40 48.63363 11.30452 29755 ft 542 kts 118°
2026-05-06 02:40 48.62027 11.35792 29744 ft 546 kts 115°
2026-05-06 02:41 48.59680 11.46721 29849 ft 546 kts 113°
2026-05-06 02:41 48.57435 11.57696 29850 ft 548 kts 111°
2026-05-06 02:42 48.55679 11.68868 29855 ft 551 kts 108°
2026-05-06 02:42 48.54032 11.80172 29832 ft 552 kts 107°
2026-05-06 02:43 48.52390 11.91482 29856 ft 551 kts 108°
2026-05-06 02:43 48.50729 12.02777 29847 ft 551 kts 108°
2026-05-06 02:44 48.49049 12.14069 29854 ft 551 kts 108°
2026-05-06 02:44 48.47350 12.25346 29837 ft 551 kts 108°
2026-05-06 02:45 48.45634 12.36599 29851 ft 551 kts 108°
2026-05-06 02:45 48.43918 12.47798 29850 ft 551 kts 108°
2026-05-06 02:46 48.42184 12.59047 29850 ft 551 kts 108°
2026-05-06 02:46 48.40441 12.70278 29854 ft 551 kts 108°
2026-05-06 02:47 48.38253 12.81255 29856 ft 546 kts 114°
2026-05-06 02:47 48.35789 12.92003 29858 ft 546 kts 115°
2026-05-06 02:48 48.33267 13.02770 29819 ft 546 kts 115°
2026-05-06 02:48 48.30738 13.13519 29843 ft 546 kts 115°
2026-05-06 02:49 48.28204 13.24286 29844 ft 546 kts 115°
2026-05-06 02:49 48.25674 13.34982 29845 ft 546 kts 115°
2026-05-06 02:50 48.23115 13.45703 29843 ft 544 kts 116°
2026-05-06 02:50 48.19673 13.55633 29857 ft 534 kts 127°
2026-05-06 02:51 48.15721 13.65038 29861 ft 532 kts 129°
2026-05-06 02:51 48.11696 13.74312 29879 ft 532 kts 129°
2026-05-06 02:52 48.07648 13.83625 29836 ft 533 kts 128°
2026-05-06 02:52 48.03606 13.92945 29842 ft 534 kts 128°
2026-05-06 02:53 47.99604 14.02161 29851 ft 534 kts 128°
2026-05-06 02:53 47.95560 14.11445 29845 ft 534 kts 128°
2026-05-06 02:54 47.91498 14.20731 29823 ft 536 kts 128°
2026-05-06 02:54 47.87404 14.30060 29838 ft 537 kts 128°
2026-05-06 02:55 47.83314 14.39353 29855 ft 537 kts 128°
2026-05-06 02:55 47.79210 14.48636 29831 ft 536 kts 128°
2026-05-06 02:56 47.75097 14.57912 29835 ft 538 kts 128°
2026-05-06 02:56 47.70965 14.67206 29848 ft 539 kts 128°
2026-05-06 02:57 47.66841 14.76447 29854 ft 541 kts 128°
2026-05-06 02:57 47.62678 14.85742 29829 ft 541 kts 128°
2026-05-06 02:58 47.58499 14.95040 29854 ft 542 kts 128°
2026-05-06 02:58 47.54310 15.04333 29917 ft 541 kts 128°
2026-05-06 02:59 47.50161 15.13509 29946 ft 541 kts 128°
2026-05-06 02:59 47.45956 15.22769 29975 ft 540 kts 128°
2026-05-06 03:00 47.41770 15.31961 29992 ft 539 kts 128°
2026-05-06 03:00 47.37568 15.41155 29977 ft 541 kts 128°
2026-05-06 03:01 47.33340 15.50371 29982 ft 543 kts 128°
2026-05-06 03:01 47.29133 15.59518 30006 ft 541 kts 128°
2026-05-06 03:02 47.24901 15.68686 30008 ft 541 kts 128°
2026-05-06 03:02 47.20658 15.77847 30005 ft 541 kts 128°
2026-05-06 03:03 47.16541 15.86708 29974 ft 541 kts 128°
2026-05-06 03:03 47.12526 15.95323 30069 ft 537 kts 128°
2026-05-06 03:04 47.08301 16.04358 30065 ft 538 kts 128°
2026-05-06 03:04 47.04212 16.13072 30062 ft 539 kts 128°
2026-05-06 03:05 47.00028 16.22113 30040 ft 541 kts 124°
2026-05-06 03:05 46.96283 16.31721 30062 ft 542 kts 122°
2026-05-06 03:06 46.92668 16.41317 30062 ft 542 kts 122°
2026-05-06 03:06 46.89044 16.50950 30061 ft 542 kts 122°
2026-05-06 03:07 46.85393 16.60591 30059 ft 541 kts 122°
2026-05-06 03:07 46.81733 16.70201 30061 ft 541 kts 122°
2026-05-06 03:08 46.78089 16.79728 30061 ft 541 kts 122°
2026-05-06 03:08 46.74413 16.89306 30046 ft 541 kts 122°
2026-05-06 03:09 46.70726 16.98879 30050 ft 542 kts 122°
2026-05-06 03:09 46.67041 17.08415 30051 ft 543 kts 122°
2026-05-06 03:10 46.63336 17.17970 30050 ft 543 kts 122°
2026-05-06 03:10 46.60224 17.25968 30038 ft 543 kts 121°
2026-05-06 03:11 46.55911 17.37016 30042 ft 544 kts 122°
2026-05-06 03:11 46.52774 17.45025 30043 ft 544 kts 122°
2026-05-06 03:12 46.49022 17.54570 30050 ft 544 kts 122°
2026-05-06 03:12 46.45256 17.64117 30056 ft 545 kts 121°
2026-05-06 03:13 46.41503 17.73599 30054 ft 545 kts 121°
2026-05-06 03:13 46.37815 17.82885 30049 ft 546 kts 122°
2026-05-06 03:14 46.34049 17.92336 30046 ft 547 kts 121°
2026-05-06 03:14 46.30252 18.01830 30047 ft 548 kts 121°
2026-05-06 03:15 46.26568 18.11011 30058 ft 548 kts 121°
2026-05-06 03:15 46.22728 18.20549 30063 ft 548 kts 122°
2026-05-06 03:16 46.18890 18.30049 30064 ft 548 kts 121°
2026-05-06 03:16 46.15063 18.39487 30064 ft 548 kts 121°
2026-05-06 03:17 46.11182 18.49028 30068 ft 548 kts 121°
2026-05-06 03:17 46.07317 18.58498 30060 ft 548 kts 121°
2026-05-06 03:18 46.03445 18.67949 30047 ft 548 kts 121°
2026-05-06 03:18 45.99585 18.77342 30048 ft 549 kts 121°
2026-05-06 03:19 45.95688 18.86793 30054 ft 549 kts 121°
2026-05-06 03:19 45.91383 18.95306 30047 ft 546 kts 134°
2026-05-06 03:20 45.83431 19.06987 30062 ft 545 kts 137°
2026-05-06 03:20 45.78038 19.14604 30061 ft 545 kts 137°
2026-05-06 03:21 45.72661 19.22215 30057 ft 545 kts 136°
2026-05-06 03:21 45.67276 19.29854 30060 ft 545 kts 136°
2026-05-06 03:22 45.61920 19.37443 30058 ft 545 kts 136°
2026-05-06 03:22 45.56529 19.45058 30061 ft 545 kts 137°
2026-05-06 03:23 45.51139 19.52649 30067 ft 545 kts 137°
2026-05-06 03:23 45.45728 19.60248 30052 ft 546 kts 137°
2026-05-06 03:24 45.40296 19.67854 30052 ft 548 kts 137°
2026-05-06 03:24 45.34881 19.75414 30062 ft 547 kts 137°
2026-05-06 03:25 45.29444 19.82984 30065 ft 547 kts 137°
2026-05-06 03:25 45.24008 19.90532 30067 ft 547 kts 137°
2026-05-06 03:26 45.18922 19.97573 30058 ft 547 kts 137°
2026-05-06 03:26 45.13982 20.04395 30062 ft 548 kts 137°
2026-05-06 03:27 45.08400 20.12082 30048 ft 548 kts 137°
2026-05-06 03:27 45.02904 20.19630 30050 ft 548 kts 137°
2026-05-06 03:28 44.97467 20.27075 30065 ft 548 kts 137°
2026-05-06 03:28 44.92205 20.34262 30094 ft 547 kts 137°
2026-05-06 03:29 44.87320 20.40917 30094 ft 547 kts 137°
2026-05-06 03:29 44.82049 20.48079 30092 ft 547 kts 137°
2026-05-06 03:30 44.76563 20.55511 30097 ft 546 kts 137°
2026-05-06 03:30 44.71114 20.62873 30105 ft 546 kts 137°
2026-05-06 03:31 44.65628 20.70265 30097 ft 545 kts 137°
2026-05-06 03:31 44.60145 20.77633 30096 ft 547 kts 137°
2026-05-06 03:32 44.54645 20.85003 30105 ft 546 kts 137°
2026-05-06 03:32 44.49178 20.92310 30105 ft 546 kts 137°
2026-05-06 03:33 44.43674 20.99645 30104 ft 546 kts 137°
2026-05-06 03:33 44.38159 21.06975 30101 ft 546 kts 137°
2026-05-06 03:34 44.32649 21.14278 30100 ft 546 kts 137°
2026-05-06 03:34 44.27167 21.21525 30105 ft 547 kts 137°
2026-05-06 03:35 44.21596 21.28869 30107 ft 547 kts 137°
2026-05-06 03:35 44.16095 21.36073 30140 ft 545 kts 138°
2026-05-06 03:36 44.10444 21.43102 30126 ft 545 kts 139°
2026-05-06 03:36 44.04735 21.50084 30125 ft 547 kts 139°
2026-05-06 03:37 43.99048 21.57066 30157 ft 546 kts 139°
2026-05-06 03:37 43.93361 21.64068 30167 ft 546 kts 139°
2026-05-06 03:38 43.87711 21.71016 30169 ft 545 kts 139°
2026-05-06 03:38 43.82026 21.77987 30159 ft 547 kts 139°
2026-05-06 03:39 43.76326 21.84957 30183 ft 546 kts 139°
2026-05-06 03:39 43.70637 21.91894 30181 ft 545 kts 139°
2026-05-06 03:40 43.64980 21.98774 30183 ft 545 kts 139°
2026-05-06 03:40 43.59283 22.05684 30179 ft 546 kts 139°
2026-05-06 03:41 43.53568 22.12597 30179 ft 548 kts 139°
2026-05-06 03:41 43.47837 22.19513 30184 ft 549 kts 139°
2026-05-06 03:42 43.42081 22.26439 30198 ft 548 kts 139°
2026-05-06 03:42 43.36385 22.33276 30254 ft 546 kts 139°
2026-05-06 03:43 43.30652 22.40139 30246 ft 548 kts 139°
2026-05-06 03:43 43.24900 22.47006 30255 ft 549 kts 139°
2026-05-06 03:44 43.19122 22.53889 30265 ft 548 kts 139°
2026-05-06 03:44 43.13356 22.60738 30266 ft 548 kts 139°
2026-05-06 03:45 43.07597 22.67562 30262 ft 548 kts 139°
2026-05-06 03:45 43.01854 22.74348 30275 ft 549 kts 139°
2026-05-06 03:46 42.96069 22.81176 30277 ft 549 kts 139°
2026-05-06 03:46 42.90460 22.88252 30276 ft 550 kts 136°
2026-05-06 03:47 42.84930 22.95460 30283 ft 549 kts 136°
2026-05-06 03:47 42.79392 23.02604 30306 ft 548 kts 137°
2026-05-06 03:48 42.73821 23.09706 30300 ft 549 kts 137°
2026-05-06 03:48 42.68230 23.16794 30296 ft 550 kts 137°
2026-05-06 03:49 42.62637 23.23864 30318 ft 547 kts 137°
2026-05-06 03:49 42.57094 23.30857 30317 ft 547 kts 137°
2026-05-06 03:50 42.51515 23.37879 30314 ft 548 kts 137°
2026-05-06 03:50 42.45917 23.44906 30344 ft 549 kts 136°
2026-05-06 03:51 42.40314 23.51923 30345 ft 549 kts 137°
2026-05-06 03:51 42.34706 23.58927 30351 ft 549 kts 137°
2026-05-06 03:52 42.29084 23.65932 30353 ft 549 kts 137°
2026-05-06 03:52 42.23426 23.72865 30350 ft 549 kts 137°
2026-05-06 03:53 42.17735 23.79748 30366 ft 550 kts 137°
2026-05-06 03:53 42.12036 23.86637 30364 ft 551 kts 137°
2026-05-06 03:54 42.06377 23.93479 30354 ft 551 kts 137°
2026-05-06 03:54 42.00669 24.00369 30359 ft 551 kts 137°
2026-05-06 03:55 41.94959 24.07255 30373 ft 552 kts 137°
2026-05-06 03:55 41.89218 24.14145 30377 ft 554 kts 137°
2026-05-06 03:56 41.84426 24.19883 30373 ft 554 kts 137°
2026-05-06 03:56 41.78666 24.26768 30373 ft 555 kts 137°
2026-05-06 03:57 41.71937 24.34791 30373 ft 554 kts 137°
2026-05-06 03:57 41.67137 24.40499 30383 ft 555 kts 137°
2026-05-06 03:58 41.61360 24.47355 30383 ft 556 kts 137°
2026-05-06 03:58 41.55582 24.54193 30375 ft 556 kts 137°
2026-05-06 03:59 41.49769 24.61056 30370 ft 556 kts 137°
2026-05-06 03:59 41.43969 24.67888 30369 ft 556 kts 137°
2026-05-06 04:00 41.38200 24.74685 30361 ft 556 kts 137°
2026-05-06 04:00 41.32448 24.81501 30357 ft 556 kts 137°
2026-05-06 04:01 41.26652 24.88358 30351 ft 556 kts 137°
2026-05-06 04:01 41.20863 24.95183 30342 ft 556 kts 137°
2026-05-06 04:02 41.15072 25.01988 30343 ft 556 kts 137°
2026-05-06 04:02 41.09260 25.08800 30346 ft 557 kts 137°
2026-05-06 04:03 41.03442 25.15603 30336 ft 558 kts 137°
2026-05-06 04:03 40.97607 25.22408 30337 ft 558 kts 137°
2026-05-06 04:04 40.91804 25.29160 30324 ft 559 kts 137°
2026-05-06 04:04 40.85923 25.35995 30344 ft 559 kts 137°
2026-05-06 04:05 40.80121 25.42765 30343 ft 559 kts 135°
2026-05-06 04:05 40.74879 25.50319 30344 ft 558 kts 129°
2026-05-06 04:06 40.69808 25.58064 30338 ft 558 kts 129°
2026-05-06 04:06 40.64759 25.65833 30355 ft 559 kts 129°
2026-05-06 04:07 40.59697 25.73582 30354 ft 558 kts 129°
2026-05-06 04:07 40.54615 25.81323 30354 ft 558 kts 129°
2026-05-06 04:08 40.49537 25.89032 30354 ft 558 kts 129°
2026-05-06 04:08 40.44433 25.96695 30367 ft 558 kts 129°
2026-05-06 04:09 40.39328 26.04301 30363 ft 558 kts 129°
2026-05-06 04:09 40.34185 26.11950 30359 ft 559 kts 129°
2026-05-06 04:10 40.29038 26.19596 30362 ft 560 kts 129°
2026-05-06 04:10 40.23887 26.27232 30381 ft 560 kts 129°
2026-05-06 04:11 40.18715 26.34880 30382 ft 560 kts 129°
2026-05-06 04:11 40.13549 26.42500 30383 ft 560 kts 129°
2026-05-06 04:12 40.08160 26.49872 30381 ft 562 kts 134°
2026-05-06 04:12 40.02503 26.56921 30402 ft 562 kts 135°
2026-05-06 04:13 39.96853 26.63989 30409 ft 563 kts 134°
2026-05-06 04:13 39.91240 26.71116 30404 ft 563 kts 134°
2026-05-06 04:14 39.85678 26.78212 30416 ft 563 kts 134°
2026-05-06 04:14 39.80077 26.85347 30418 ft 563 kts 134°
2026-05-06 04:15 39.74478 26.92442 30433 ft 564 kts 134°
2026-05-06 04:15 39.68775 26.99450 30431 ft 565 kts 135°
2026-05-06 04:16 39.63025 27.06434 30431 ft 565 kts 135°
2026-05-06 04:16 39.57293 27.13412 30433 ft 565 kts 135°
2026-05-06 04:17 39.51599 27.20356 30880 ft 555 kts 135°
2026-05-06 04:17 39.48999 27.23948 31084 ft 541 kts 129°
2026-05-06 04:17 39.46560 27.27631 31110 ft 538 kts 128°
2026-05-06 04:18 39.41780 27.35074 31108 ft 538 kts 127°
2026-05-06 04:18 39.37020 27.42559 31110 ft 538 kts 127°
2026-05-06 04:19 39.32269 27.49993 31113 ft 538 kts 127°
2026-05-06 04:19 39.27534 27.57363 31108 ft 536 kts 127°
2026-05-06 04:20 39.22774 27.64747 31111 ft 535 kts 128°
2026-05-06 04:20 39.18009 27.72124 31111 ft 535 kts 128°
2026-05-06 04:21 39.13233 27.79501 31106 ft 535 kts 128°
2026-05-06 04:21 39.08453 27.86869 31114 ft 537 kts 128°
2026-05-06 04:22 39.03663 27.94243 31116 ft 537 kts 128°
2026-05-06 04:23 38.96455 28.05286 31109 ft 537 kts 128°
2026-05-06 04:23 38.91643 28.12641 31110 ft 535 kts 128°
2026-05-06 04:24 38.86881 28.19903 31113 ft 535 kts 128°
2026-05-06 04:24 38.82055 28.27248 31113 ft 535 kts 128°
2026-05-06 04:25 38.77256 28.34535 31115 ft 536 kts 128°
2026-05-06 04:25 38.72454 28.41810 31113 ft 533 kts 129°
2026-05-06 04:26 38.67670 28.49038 31117 ft 531 kts 129°
2026-05-06 04:26 38.62898 28.56235 31119 ft 531 kts 129°
2026-05-06 04:27 38.57952 28.63145 31113 ft 532 kts 138°
2026-05-06 04:27 38.52061 28.68898 31116 ft 531 kts 144°
2026-05-06 04:28 38.46045 28.74283 31104 ft 527 kts 145°
2026-05-06 04:28 38.39970 28.79649 31110 ft 532 kts 145°
2026-05-06 04:29 38.33916 28.85020 31109 ft 532 kts 145°
2026-05-06 04:29 38.27829 28.90433 31108 ft 532 kts 144°
2026-05-06 04:30 38.21795 28.95795 31104 ft 532 kts 145°
2026-05-06 04:30 38.15724 29.01179 31099 ft 530 kts 145°
2026-05-06 04:31 38.09683 29.06523 31097 ft 529 kts 145°
2026-05-06 04:31 38.03635 29.11862 31091 ft 529 kts 145°
2026-05-06 04:32 37.97590 29.17188 31089 ft 529 kts 145°
2026-05-06 04:32 37.91534 29.22513 31088 ft 531 kts 145°
2026-05-06 04:33 37.85450 29.27851 31086 ft 531 kts 145°
2026-05-06 04:33 37.79401 29.33147 31087 ft 527 kts 145°
2026-05-06 04:34 37.73398 29.38393 31084 ft 526 kts 145°
2026-05-06 04:34 37.67407 29.43617 31077 ft 527 kts 145°
2026-05-06 04:35 37.61362 29.48879 31082 ft 528 kts 145°
2026-05-06 04:35 37.55311 29.54135 31094 ft 529 kts 145°
2026-05-06 04:36 37.49259 29.59382 31086 ft 526 kts 145°
2026-05-06 04:36 37.43235 29.64592 31093 ft 525 kts 145°
2026-05-06 04:37 37.37218 29.69787 31097 ft 526 kts 145°
2026-05-06 04:37 37.31172 29.75005 31094 ft 527 kts 145°
2026-05-06 04:38 37.25154 29.80191 31093 ft 528 kts 146°
2026-05-06 04:38 37.19062 29.85427 31088 ft 527 kts 146°
2026-05-06 04:39 37.13062 29.90575 31091 ft 525 kts 146°
2026-05-06 04:39 37.07019 29.95749 31083 ft 527 kts 146°
2026-05-06 04:40 37.00962 30.00936 31082 ft 528 kts 146°
2026-05-06 04:40 36.94898 30.06122 31074 ft 528 kts 146°
2026-05-06 04:41 36.88830 30.11300 31076 ft 528 kts 146°
2026-05-06 04:41 36.83745 30.15630 31063 ft 527 kts 146°
2026-05-06 04:42 36.77665 30.20794 31064 ft 530 kts 146°
2026-05-06 04:42 36.71605 30.25919 30883 ft 527 kts 146°
2026-05-06 04:42 36.68574 30.28478 30650 ft 525 kts 146°
2026-05-06 04:43 36.65552 30.31030 30400 ft 525 kts 146°
2026-05-06 04:43 36.62522 30.33585 30146 ft 525 kts 146°
2026-05-06 04:43 36.59505 30.36128 29868 ft 525 kts 146°
2026-05-06 04:43 36.56475 30.38679 29589 ft 525 kts 146°
2026-05-06 04:44 36.53445 30.41229 29309 ft 525 kts 146°
2026-05-06 04:44 36.50418 30.43773 29024 ft 523 kts 146°
2026-05-06 04:44 36.47408 30.46302 28737 ft 520 kts 146°
2026-05-06 04:44 36.44411 30.48816 28493 ft 518 kts 146°
2026-05-06 04:45 36.41432 30.51313 28220 ft 516 kts 146°
2026-05-06 04:45 36.38451 30.53809 27943 ft 514 kts 146°
2026-05-06 04:45 36.35496 30.56280 27682 ft 512 kts 146°
2026-05-06 04:45 36.32592 30.58707 27422 ft 510 kts 146°
2026-05-06 04:46 36.29645 30.61167 27164 ft 508 kts 146°
2026-05-06 04:46 36.26716 30.63612 26896 ft 509 kts 146°
2026-05-06 04:46 36.23777 30.66060 26642 ft 510 kts 146°
2026-05-06 04:46 36.20825 30.68519 26389 ft 509 kts 146°
2026-05-06 04:47 36.17897 30.70954 26135 ft 507 kts 146°
2026-05-06 04:47 36.14978 30.73381 25890 ft 505 kts 146°
2026-05-06 04:47 36.12060 30.75803 25644 ft 503 kts 146°
2026-05-06 04:47 36.09160 30.78184 25393 ft 501 kts 148°
2026-05-06 04:48 36.06105 30.80246 25160 ft 498 kts 156°
2026-05-06 04:48 36.02882 30.81750 24933 ft 495 kts 165°
2026-05-06 04:48 35.99523 30.82618 24685 ft 491 kts 175°
2026-05-06 04:48 35.96127 30.83032 24447 ft 490 kts 178°
2026-05-06 04:49 35.92730 30.83289 24216 ft 489 kts 180°
2026-05-06 04:49 35.89327 30.83471 23984 ft 487 kts 180°
2026-05-06 04:49 35.85947 30.83630 23751 ft 485 kts 180°
2026-05-06 04:49 35.82577 30.83791 23496 ft 483 kts 180°
2026-05-06 04:50 35.79225 30.83965 23211 ft 482 kts 181°
2026-05-06 04:50 35.75870 30.84151 22947 ft 482 kts 181°
2026-05-06 04:50 35.72565 30.84422 22673 ft 483 kts 176°
2026-05-06 04:50 35.69253 30.85197 22407 ft 485 kts 167°
2026-05-06 04:51 35.66091 30.86628 22144 ft 486 kts 156°
2026-05-06 04:51 35.63227 30.88716 21870 ft 483 kts 144°
2026-05-06 04:51 35.60717 30.91450 21613 ft 483 kts 132°
2026-05-06 04:51 35.58678 30.94725 21358 ft 481 kts 120°
2026-05-06 04:52 35.57195 30.98378 21114 ft 477 kts 109°
2026-05-06 04:52 35.56299 31.02279 20861 ft 472 kts 97°
2026-05-06 04:52 35.55784 31.06246 20611 ft 471 kts 98°
2026-05-06 04:52 35.55048 31.10167 20366 ft 470 kts 102°
2026-05-06 04:53 35.54208 31.14042 20109 ft 469 kts 103°
2026-05-06 04:53 35.53314 31.17881 19860 ft 468 kts 104°
2026-05-06 04:53 35.52378 31.21700 19637 ft 466 kts 105°
2026-05-06 04:53 35.51417 31.25498 19400 ft 465 kts 105°
2026-05-06 04:54 35.50445 31.29279 19153 ft 464 kts 106°
2026-05-06 04:54 35.49470 31.33051 18920 ft 462 kts 106°
2026-05-06 04:54 35.48500 31.36800 18681 ft 461 kts 106°
2026-05-06 04:54 35.47531 31.40550 18447 ft 459 kts 106°
2026-05-06 04:55 35.46570 31.44271 18192 ft 458 kts 106°
2026-05-06 04:55 35.45624 31.47933 17931 ft 456 kts 106°
2026-05-06 04:55 35.44652 31.51695 17656 ft 454 kts 106°
2026-05-06 04:55 35.43716 31.55316 17404 ft 451 kts 106°
2026-05-06 04:56 35.42767 31.58980 17141 ft 449 kts 106°
2026-05-06 04:56 35.41833 31.62586 16885 ft 447 kts 106°
2026-05-06 04:56 35.40894 31.66203 16618 ft 445 kts 106°
2026-05-06 04:56 35.39954 31.69818 16372 ft 443 kts 106°
2026-05-06 04:57 35.39020 31.73404 16119 ft 441 kts 106°
2026-05-06 04:57 35.38089 31.76976 15871 ft 439 kts 106°
2026-05-06 04:57 35.37160 31.80535 15629 ft 437 kts 107°
2026-05-06 04:57 35.36235 31.84074 15381 ft 435 kts 107°
2026-05-06 04:58 35.35317 31.87581 15142 ft 433 kts 107°
2026-05-06 04:58 35.34396 31.91095 14888 ft 431 kts 107°
2026-05-06 04:58 35.33480 31.94586 14639 ft 429 kts 107°
2026-05-06 04:58 35.32565 31.98065 14432 ft 427 kts 107°
2026-05-06 04:59 35.31660 32.01505 14187 ft 425 kts 107°
2026-05-06 04:59 35.30758 32.04928 13945 ft 423 kts 107°
2026-05-06 04:59 35.29862 32.08346 13696 ft 421 kts 107°
2026-05-06 04:59 35.28974 32.11753 13426 ft 418 kts 107°
2026-05-06 05:00 35.28099 32.15103 13163 ft 416 kts 107°
2026-05-06 05:00 35.27221 32.18459 12890 ft 413 kts 107°
2026-05-06 05:00 35.26345 32.21803 12638 ft 411 kts 107°
2026-05-06 05:00 35.25476 32.25119 12372 ft 409 kts 107°
2026-05-06 05:01 35.24607 32.28429 12125 ft 406 kts 107°
2026-05-06 05:01 35.23744 32.31710 11870 ft 404 kts 107°
2026-05-06 05:01 35.22887 32.34967 11616 ft 401 kts 107°
2026-05-06 05:01 35.22032 32.38209 11362 ft 399 kts 107°
2026-05-06 05:02 35.21183 32.41426 11123 ft 397 kts 107°
2026-05-06 05:02 35.20335 32.44636 11043 ft 396 kts 107°
2026-05-06 05:02 35.19488 32.47838 11045 ft 395 kts 107°
2026-05-06 05:02 35.18641 32.51035 11045 ft 395 kts 107°
2026-05-06 05:03 35.17808 32.54234 11053 ft 395 kts 106°
2026-05-06 05:03 35.16983 32.57453 11040 ft 395 kts 106°
2026-05-06 05:03 35.16161 32.60615 11053 ft 395 kts 106°
2026-05-06 05:03 35.15322 32.63809 11035 ft 395 kts 107°
2026-05-06 05:04 35.14475 32.67007 11051 ft 395 kts 107°
2026-05-06 05:04 35.13623 32.70211 11050 ft 395 kts 107°
2026-05-06 05:04 35.12774 32.73399 11051 ft 395 kts 107°
2026-05-06 05:04 35.11921 32.76590 11044 ft 396 kts 107°
2026-05-06 05:05 35.11065 32.79790 11039 ft 396 kts 107°
2026-05-06 05:05 35.10211 32.82980 11037 ft 396 kts 107°
2026-05-06 05:05 35.09354 32.86175 11052 ft 396 kts 107°
2026-05-06 05:05 35.08497 32.89362 11034 ft 395 kts 107°
2026-05-06 05:06 35.07639 32.92556 11033 ft 395 kts 107°
2026-05-06 05:06 35.06774 32.95746 10965 ft 395 kts 108°
2026-05-06 05:06 35.05867 32.98902 10750 ft 392 kts 109°
2026-05-06 05:06 35.04969 33.01978 10757 ft 374 kts 109°
2026-05-06 05:07 35.04132 33.04874 10763 ft 350 kts 108°
2026-05-06 05:07 35.03370 33.07526 10755 ft 327 kts 108°
2026-05-06 05:07 35.02642 33.10057 10743 ft 306 kts 108°
2026-05-06 05:07 35.01956 33.12426 10721 ft 287 kts 108°
2026-05-06 05:08 35.01304 33.14674 10511 ft 277 kts 108°
2026-05-06 05:08 35.00669 33.16856 10275 ft 269 kts 108°
2026-05-06 05:08 35.00056 33.18970 10056 ft 260 kts 108°
2026-05-06 05:08 34.99464 33.21011 9818 ft 258 kts 108°
2026-05-06 05:09 34.98868 33.23070 9558 ft 256 kts 108°
2026-05-06 05:09 34.98275 33.25119 9463 ft 256 kts 108°
2026-05-06 05:09 34.97684 33.27159 9409 ft 255 kts 108°
2026-05-06 05:09 34.97096 33.29190 9332 ft 255 kts 108°
2026-05-06 05:10 34.96505 33.31228 9284 ft 254 kts 108°
2026-05-06 05:10 34.95918 33.33258 9232 ft 254 kts 108°
2026-05-06 05:10 34.95330 33.35285 9168 ft 253 kts 108°
2026-05-06 05:10 34.94740 33.37309 9127 ft 253 kts 108°
2026-05-06 05:11 34.94151 33.39328 9081 ft 253 kts 108°
2026-05-06 05:11 34.93562 33.41348 9016 ft 252 kts 108°
2026-05-06 05:11 34.92991 33.43306 8968 ft 252 kts 108°
2026-05-06 05:11 34.92391 33.45365 8902 ft 252 kts 108°
2026-05-06 05:12 34.91803 33.47381 8857 ft 251 kts 108°
2026-05-06 05:12 34.91216 33.49392 8798 ft 251 kts 108°
2026-05-06 05:12 34.90630 33.51400 8743 ft 251 kts 108°
2026-05-06 05:12 34.90047 33.53394 8692 ft 250 kts 108°
2026-05-06 05:13 34.89463 33.55393 8626 ft 250 kts 108°
2026-05-06 05:13 34.88881 33.57384 8589 ft 250 kts 108°
2026-05-06 05:13 34.88297 33.59378 8533 ft 249 kts 108°
2026-05-06 05:13 34.87714 33.61369 8484 ft 249 kts 108°
2026-05-06 05:14 34.87150 33.63303 8425 ft 247 kts 108°
2026-05-06 05:14 34.86589 33.65285 8376 ft 248 kts 108°
2026-05-06 05:14 34.86032 33.67266 8358 ft 248 kts 108°
2026-05-06 05:14 34.85474 33.69253 8335 ft 248 kts 108°
2026-05-06 05:15 34.84921 33.71238 8316 ft 247 kts 108°
2026-05-06 05:15 34.84370 33.73223 8292 ft 247 kts 108°
2026-05-06 05:15 34.83822 33.75201 8253 ft 247 kts 108°
2026-05-06 05:15 34.83271 33.77187 8239 ft 247 kts 108°
2026-05-06 05:16 34.82722 33.79165 8220 ft 246 kts 108°
2026-05-06 05:16 34.82175 33.81137 8202 ft 246 kts 108°
2026-05-06 05:16 34.81628 33.83110 8173 ft 246 kts 108°
2026-05-06 05:16 34.81085 33.85070 8157 ft 246 kts 108°
2026-05-06 05:17 34.80544 33.87017 8136 ft 246 kts 107°
2026-05-06 05:17 34.79996 33.88991 8102 ft 246 kts 108°
2026-05-06 05:17 34.79450 33.90960 8092 ft 246 kts 108°
2026-05-06 05:17 34.78905 33.92927 8075 ft 245 kts 107°
2026-05-06 05:18 34.78358 33.94898 8049 ft 245 kts 107°
2026-05-06 05:18 34.77814 33.96862 8032 ft 244 kts 108°
2026-05-06 05:18 34.77278 33.98818 8015 ft 244 kts 107°
2026-05-06 05:18 34.76741 34.00777 8004 ft 244 kts 108°
2026-05-06 05:19 34.76205 34.02732 7973 ft 244 kts 107°
2026-05-06 05:19 34.75667 34.04691 7948 ft 244 kts 108°
2026-05-06 05:19 34.75132 34.06643 7917 ft 244 kts 108°
2026-05-06 05:19 34.74632 34.08588 7902 ft 243 kts 102°
2026-05-06 05:20 34.74541 34.10623 7870 ft 242 kts 80°
2026-05-06 05:20 34.75167 34.12503 7859 ft 239 kts 51°
2026-05-06 05:20 34.76460 34.13696 7858 ft 234 kts 18°
2026-05-06 05:20 34.78045 34.13891 7698 ft 227 kts 346°
2026-05-06 05:21 34.79395 34.13041 7400 ft 218 kts 312°
2026-05-06 05:21 34.80383 34.11658 7033 ft 217 kts 305°
2026-05-06 05:21 34.81326 34.10231 6698 ft 215 kts 306°
2026-05-06 05:21 34.82256 34.08859 6449 ft 210 kts 307°
2026-05-06 05:22 34.83196 34.07508 6192 ft 203 kts 307°
2026-05-06 05:22 34.84097 34.06227 5998 ft 201 kts 307°
2026-05-06 05:22 34.84995 34.04955 5762 ft 201 kts 307°
2026-05-06 05:22 34.85906 34.03669 5573 ft 201 kts 307°
2026-05-06 05:23 34.86821 34.02382 5372 ft 201 kts 307°
2026-05-06 05:23 34.87437 34.01515 5225 ft 201 kts 307°
2026-05-06 05:23 34.89266 33.98944 4746 ft 201 kts 307°
2026-05-06 05:24 34.90178 33.97661 4548 ft 200 kts 307°
2026-05-06 05:24 34.91084 33.96387 4340 ft 199 kts 307°
2026-05-06 05:24 34.91980 33.95096 4140 ft 198 kts 305°
2026-05-06 05:24 34.92666 33.93672 3999 ft 195 kts 289°
2026-05-06 05:25 34.93141 33.92127 3832 ft 195 kts 285°
2026-05-06 05:25 34.93579 33.90580 3647 ft 194 kts 285°
2026-05-06 05:25 34.94021 33.89027 3493 ft 194 kts 285°
2026-05-06 05:25 34.94455 33.87506 3341 ft 194 kts 285°
2026-05-06 05:26 34.94904 33.85937 3197 ft 194 kts 285°
2026-05-06 05:26 34.95318 33.84493 3131 ft 191 kts 286°
2026-05-06 05:26 34.95757 33.82963 3072 ft 191 kts 286°
2026-05-06 05:26 34.96197 33.81427 3021 ft 191 kts 286°
2026-05-06 05:27 34.96635 33.79899 3009 ft 191 kts 286°
2026-05-06 05:27 34.97047 33.78370 3001 ft 190 kts 282°
2026-05-06 05:27 34.97065 33.76780 3007 ft 187 kts 256°
2026-05-06 05:27 34.96745 33.75242 3001 ft 188 kts 252°
2026-05-06 05:28 34.96335 33.73728 3001 ft 189 kts 243°
2026-05-06 05:28 34.95598 33.72422 3006 ft 188 kts 223°
2026-05-06 05:28 34.94674 33.71377 2973 ft 171 kts 224°
2026-05-06 05:28 34.93896 33.70413 2955 ft 150 kts 225°
2026-05-06 05:29 34.93169 33.69510 3010 ft 151 kts 224°
2026-05-06 05:29 34.92421 33.68590 2886 ft 160 kts 224°
2026-05-06 05:29 34.91583 33.67568 2230 ft 179 kts 225°
2026-05-06 05:29 34.90666 33.66468 1557 ft 190 kts 224°
2026-05-06 05:30 34.89699 33.65330 919 ft 196 kts 224°
2026-05-06 05:30 34.88769 33.64152 385 ft 197 kts 228°
2026-05-06 05:30 34.87853 33.63003 40 ft 188 kts 229°
2026-05-06 05:30 34.86971 33.61881 457 ft 185 kts 227°
2026-05-06 05:31 34.86251 33.61003 1315 ft 179 kts 225°
2026-05-06 05:31 34.85353 33.59919 2222 ft 190 kts 225°
2026-05-06 05:31 34.84294 33.58776 2769 ft 221 kts 213°
2026-05-06 05:31 34.82994 33.57952 2929 ft 262 kts 201°
2026-05-06 05:32 34.81040 33.57753 2969 ft 305 kts 171°
2026-05-06 05:32 34.79029 33.58872 2973 ft 338 kts 143°
2026-05-06 05:32 34.77495 33.61116 2989 ft 365 kts 119°
2026-05-06 05:32 34.76753 33.64114 2992 ft 374 kts 97°
2026-05-06 05:33 34.77000 33.67246 2999 ft 374 kts 75°
2026-05-06 05:33 34.78205 33.70042 2998 ft 375 kts 52°
2026-05-06 05:33 34.80181 33.72075 3000 ft 376 kts 30°
2026-05-06 05:33 34.82648 33.73060 3001 ft 375 kts
2026-05-06 05:34 34.85082 33.73239 3002 ft 321 kts
2026-05-06 05:34 34.86970 33.74171 3036 ft 273 kts 38°
2026-05-06 05:34 34.87963 33.75913 2949 ft 238 kts 74°
2026-05-06 05:34 34.88028 33.77784 2765 ft 216 kts 96°
2026-05-06 05:35 34.87979 33.79547 2528 ft 202 kts 89°
2026-05-06 05:35 34.88126 33.81207 2299 ft 193 kts 81°
2026-05-06 05:35 34.88424 33.82763 2074 ft 183 kts 74°
2026-05-06 05:35 34.88797 33.84175 2007 ft 166 kts 71°
2026-05-06 05:36 34.89171 33.85395 1996 ft 146 kts 69°
2026-05-06 05:36 34.89530 33.86466 1954 ft 123 kts 68°
2026-05-06 05:36 34.89922 33.87583 1789 ft 172 kts 65°
2026-05-06 05:36 34.90430 33.88978 1895 ft 189 kts 64°
2026-05-06 05:37 34.90990 33.90478 2007 ft 197 kts 64°
2026-05-06 05:37 34.91744 33.91860 2011 ft 196 kts 42°
2026-05-06 05:37 34.92971 33.92460 2014 ft 192 kts 356°
2026-05-06 05:37 34.94111 33.91806 2020 ft 187 kts 310°
2026-05-06 05:38 34.94477 33.90366 2013 ft 176 kts 264°
2026-05-06 05:38 34.94301 33.88995 1993 ft 155 kts 270°
2026-05-06 05:38 34.94546 33.87865 2004 ft 135 kts 287°
2026-05-06 05:38 34.94808 33.86802 2052 ft 135 kts 286°
2026-05-06 05:39 34.95094 33.85688 2022 ft 139 kts 288°
2026-05-06 05:39 34.95394 33.84577 2015 ft 139 kts 288°
2026-05-06 05:39 34.95704 33.83453 2010 ft 139 kts 288°
2026-05-06 05:39 34.96017 33.82331 2010 ft 140 kts 288°
2026-05-06 05:40 34.96333 33.81207 2008 ft 141 kts 289°
2026-05-06 05:40 34.96654 33.80079 2010 ft 141 kts 289°
2026-05-06 05:40 34.96969 33.78968 2005 ft 141 kts 289°
2026-05-06 05:40 34.97177 33.77806 2006 ft 141 kts 274°
2026-05-06 05:41 34.97086 33.76639 2007 ft 141 kts 257°
2026-05-06 05:41 34.96837 33.75484 2006 ft 141 kts 255°
2026-05-06 05:41 34.96576 33.74336 2001 ft 140 kts 255°
2026-05-06 05:41 34.96129 33.73281 2001 ft 141 kts 234°
2026-05-06 05:42 34.95466 33.72393 1980 ft 142 kts 227°
2026-05-06 05:42 34.94767 33.71535 1796 ft 142 kts 227°
2026-05-06 05:42 34.94081 33.70669 1629 ft 141 kts 226°
2026-05-06 05:42 34.93403 33.69803 1445 ft 142 kts 227°
2026-05-06 05:43 34.92720 33.68953 1280 ft 142 kts 225°
2026-05-06 05:43 34.92018 33.68099 1104 ft 143 kts 226°
2026-05-06 05:43 34.91319 33.67238 938 ft 143 kts 226°
2026-05-06 05:43 34.90639 33.66403 764 ft 143 kts 226°
2026-05-06 05:44 34.89947 33.65554 593 ft 143 kts 226°
2026-05-06 05:44 34.89278 33.64733 412 ft 143 kts 227°
2026-05-06 05:44 34.88599 33.63900 257 ft 144 kts 227°
2026-05-06 05:44 34.87899 33.63042 95 ft 145 kts 227°
2026-05-06 05:45 34.87260 33.62246 25 ft 98 kts 226°
2026-05-06 05:45 34.86989 33.61852 26 ft 43 kts 248°
2026-05-06 05:45 34.86948 33.61687 25 ft 0 kts 255°
2026-05-06 05:47 34.86944 33.61671 24 ft 14 kts 255°
2026-05-06 05:47 34.86896 33.61463 24 ft 22 kts 243°
2026-05-06 05:47 34.86895 33.61326 24 ft 16 kts 260°
2026-05-06 05:47 34.86833 33.61232 25 ft 15 kts 226°
2026-05-06 05:48 34.86762 33.61142 26 ft 16 kts 226°
2026-05-06 05:48 34.86708 33.61034 22 ft 15 kts 272°
2026-05-06 05:48 34.86746 33.60951 27 ft 11 kts 312°
2026-05-06 05:48 34.86802 33.60887 26 ft 10 kts 327°
2026-05-06 05:49 34.86832 33.60897 25 ft 4 kts 37°
2026-05-06 05:49 34.86856 33.60929 23 ft 6 kts 47°
2026-05-06 05:49 34.86869 33.60947 24 ft 0 kts 46°